Regional Weather Roundup
Issued by NWS Sioux Falls, SD

Home | Current Version | Previous Version | Graphics & Text | Print | Product List | Glossary On
Versions: 1 2 3 4 5 6 7 8 9 10 11 12 13 14 15 16 17 18 19 20 21 22 23 24 25 26 27 28 29 30 31 32 33 34 35 36 37 38 39 40 41 42 43 44 45 46 47 48 49 50
000
ASUS43 KFSD 251710
RWRFSD

WEATHER ROUNDUP FOR SE SOUTH DAKOTA/SW MINNESOTA/NW IOWA
NATIONAL WEATHER SERVICE SIOUX FALLS SD
1200 PM CDT MON MAY 25 2015

NOTE: "FAIR" INDICATES FEW OR NO CLOUDS BELOW 12,000 FEET WITH NO
SIGNIFICANT WEATHER AND OR OBSTRUCTIONS TO VISIBILITY.


SDZ038>040-050-052>070-251800-
SOUTHEAST SOUTH DAKOTA

CITY           SKY/WX    TMP DP  RH WIND       PRES   REMARKS
BROOKINGS      CLOUDY    63  57  82 W10       29.76R
CHAMBERLAIN    CLOUDY    60  56  85 N7        29.76F
HURON          CLOUDY    62  56  80 CALM      29.76R
MADISON        CLOUDY    63  63 100 W7        29.76S
MITCHELL       CLOUDY    63  57  81 CALM      29.76F
SIOUX FALLS    CLOUDY    65  58  78 SW6       29.76S
WINNER         CLOUDY    62  55  77 NE9       29.77S
YANKTON        CLOUDY    63  57  82 S3        29.76F
$$

MNZ071-072-080-081-089-090-097-098-251800-
SOUTHWEST MINNESOTA

CITY           SKY/WX    TMP DP  RH WIND       PRES   REMARKS
FAIRMONT       CLOUDY    64  55  72 SW10      29.76R
JACKSON        CLOUDY    64  59  82 SW16      29.78R
LUVERNE        CLOUDY    64  59  82 SW12      29.77S
MARSHALL       CLOUDY    64  54  68 W16       29.72S
MONTEVIDEO     CLOUDY    63  63 100 NW9       29.71R
PIPESTONE      CLOUDY    64  57  77 SW10      29.76R
REDWOOD FALLS  CLOUDY    65  57  75 W15       29.71S
TRACY          CLOUDY    68  59  74 W10G17    29.74R
WINDOM         CLOUDY    64  57  77 SW13G21   29.76R
WORTHINGTON    CLOUDY    63  55  77 SW13      29.77R
$$

IAZ001>003-012>014-020>022-031-032-NEZ013-014-SDZ071-251800-
NORTHWEST IOWA

CITY           SKY/WX    TMP DP  RH WIND       PRES   REMARKS
CHEROKEE       PTSUNNY   68  64  86 SW14      29.77F
DENISON        PTSUNNY   72  64  78 SW13      29.77F
ESTHERVILLE    CLOUDY    67  60  78 SW17      29.76S
LE MARS        PTSUNNY   68  63  83 SW10      29.77F
ORANGE CITY    PTSUNNY   64  59  82 W9        29.77F
SHELDON        CLOUDY    64 N/A N/A SW13      29.77S
SIOUX CITY     CLOUDY    69  61  75 SW7       29.76F
SPENCER        PTSUNNY   69  62  78 SW18      29.77F
STORM LAKE     PTSUNNY   68  66  94 SW15G22   29.79F
$$

ABBREVIATIONS USED IN REMARKS
   TC - TEMPERATURE IN CELSIUS
  WCI - WIND CHILL INDEX
   HX - HEAT INDEX
  VSB - VISIBILITY




USA.gov is the U.S. government's official web portal to all federal, state and local government web resources and services.